| time (UTC) | temp F | wind direction | speed knots | gust knots | rain 1hr in | rain 24hr in | rain mn in | humidity % | barometer mb |
| 20260507213034 | 101 | 105 | 6.1 | 12.2 | 0.00 | 0.00 | 0.00 | 41 | 1007.1 |
| 20260507211532 | 100 | 125 | 4.3 | 13.9 | 0.00 | 0.00 | 0.00 | 42 | 1007.3 |
| 20260507210029 | 100 | 153 | 5.2 | 12.2 | 0.00 | 0.00 | 0.00 | 42 | 1007.5 |
| 20260507204528 | 101 | 134 | 6.1 | 12.2 | 0.00 | 0.00 | 0.00 | 43 | 1007.7 |
| 20260507203025 | 100 | 155 | 6.1 | 20.0 | 0.00 | 0.00 | 0.00 | 44 | 1007.8 |
| 20260507201524 | 100 | 165 | 7.8 | 12.2 | 0.00 | 0.00 | 0.00 | 42 | 1008.0 |
| 20260507200032 | 100 | 148 | 8.7 | 16.5 | 0.00 | 0.00 | 0.00 | 44 | 1008.2 |
| 20260507194619 | 100 | 103 | 7.0 | 14.8 | 0.00 | 0.00 | 0.00 | 45 | 1008.4 |
| 20260507193017 | 99 | 144 | 5.2 | 18.2 | 0.00 | 0.00 | 0.00 | 46 | 1008.7 |
| 20260507191512 | 99 | 146 | 8.7 | 12.2 | 0.00 | 0.00 | 0.00 | 46 | 1009.0 |
| 20260507190020 | 99 | 95 | 9.6 | 16.5 | 0.00 | 0.00 | 0.00 | 46 | 1009.3 |
| 20260507184503 | 98 | 144 | 7.8 | 15.6 | 0.00 | 0.00 | 0.00 | 48 | 1009.5 |
| 20260507183100 | 97 | 113 | 11.3 | 17.4 | 0.00 | 0.00 | 0.00 | 50 | 1009.9 |
| 20260507181558 | 96 | 134 | 6.1 | 15.6 | 0.00 | 0.00 | 0.00 | 51 | 1010.1 |
| 20260507180054 | 97 | 140 | 10.4 | 18.2 | 0.00 | 0.00 | 0.00 | 51 | 1010.2 |
| 20260507174551 | 95 | 144 | 7.8 | 14.8 | 0.00 | 0.00 | 0.00 | 54 | 1010.6 |
| 20260507173053 | 94 | 148 | 8.7 | 16.5 | 0.00 | 0.00 | 0.00 | 55 | 1011.0 |
| 20260507171549 | 94 | 123 | 10.4 | 17.4 | 0.00 | 0.00 | 0.00 | 53 | 1011.2 |
| 20260507170044 | 94 | 104 | 6.1 | 16.5 | 0.00 | 0.00 | 0.00 | 56 | 1011.1 |
| 20260507164539 | 93 | 146 | 7.8 | 18.2 | 0.00 | 0.00 | 0.00 | 58 | 1011.2 |
| 20260507163035 | 92 | 107 | 11.3 | 19.1 | 0.00 | 0.00 | 0.00 | 59 | 1011.3 |
| 20260507161532 | 91 | 107 | 10.4 | 14.8 | 0.00 | 0.00 | 0.00 | 61 | 1011.7 |
| 20260507160037 | 91 | 148 | 12.2 | 18.2 | 0.00 | 0.00 | 0.00 | 62 | 1011.9 |
| 20260507154532 | 90 | 130 | 11.3 | 17.4 | 0.00 | 0.00 | 0.00 | 63 | 1012.0 |
| 20260507153026 | 89 | 125 | 13.0 | 19.1 | 0.00 | 0.00 | 0.00 | 65 | 1012.0 |
| 20260507151523 | 89 | 88 | 10.4 | 18.2 | 0.00 | 0.00 | 0.00 | 66 | 1012.3 |
| 20260507150020 | 88 | 183 | 10.4 | 18.2 | 0.00 | 0.00 | 0.00 | 67 | 1012.3 |
| 20260507144516 | 87 | 143 | 13.0 | 20.9 | 0.00 | 0.00 | 0.00 | 68 | 1012.2 |
| 20260507143012 | 86 | 128 | 13.0 | 20.9 | 0.00 | 0.00 | 0.00 | 71 | 1012.3 |
| 20260507141509 | 85 | 146 | 14.8 | 20.9 | 0.00 | 0.00 | 0.00 | 73 | 1012.4 |
| 20260507140127 | 84 | 111 | 13.0 | 20.9 | 0.00 | 0.00 | 0.00 | 75 | 1012.4 |
| 20260507134501 | 82 | 136 | 10.4 | 19.1 | 0.00 | 0.00 | 0.00 | 79 | 1012.3 |
| 20260507133058 | 82 | 142 | 6.1 | 14.8 | 0.00 | 0.00 | 0.00 | 81 | 1012.2 |
| 20260507131604 | 80 | 138 | 10.4 | 17.4 | 0.00 | 0.00 | 0.00 | 84 | 1012.2 |
| 20260507130103 | 78 | 128 | 7.8 | 13.0 | 0.00 | 0.00 | 0.00 | 86 | 1012.1 |
| 20260507124603 | 77 | 124 | 7.8 | 14.8 | 0.00 | 0.00 | 0.00 | 87 | 1011.9 |
| 20260507123054 | 76 | 138 | 7.0 | 11.3 | 0.00 | 0.00 | 0.00 | 87 | 1011.6 |
| 20260507121543 | 76 | 125 | 6.1 | 11.3 | 0.00 | 0.00 | 0.00 | 87 | 1011.7 |
| 20260507120035 | 76 | 105 | 5.2 | 12.2 | 0.00 | 0.00 | 0.00 | 87 | 1011.4 |
| 20260507114530 | 76 | 123 | 6.1 | 8.7 | 0.00 | 0.00 | 0.00 | 87 | 1011.2 |
| 20260507113033 | 76 | 99 | 5.2 | 10.4 | 0.00 | 0.00 | 0.00 | 87 | 1011.2 |
| 20260507111526 | 76 | 71 | 4.3 | 8.7 | 0.00 | 0.00 | 0.00 | 87 | 1011.1 |
| 20260507110028 | 76 | 119 | 5.2 | 8.7 | 0.00 | 0.00 | 0.00 | 86 | 1011.0 |
| 20260507104625 | 76 | 123 | 5.2 | 10.4 | 0.00 | 0.00 | 0.00 | 86 | 1010.9 |
| 20260507103021 | 76 | 107 | 4.3 | 11.3 | 0.00 | 0.00 | 0.00 | 86 | 1010.8 |
| 20260507101528 | 77 | 125 | 7.8 | 12.2 | 0.00 | 0.00 | 0.00 | 86 | 1010.6 |
| 20260507100025 | 77 | 134 | 7.0 | 12.2 | 0.00 | 0.00 | 0.00 | 85 | 1010.4 |
| 20260507094521 | 77 | 130 | 7.0 | 12.2 | 0.00 | 0.00 | 0.00 | 85 | 1010.4 |
| 20260507093032 | 77 | 132 | 7.8 | 12.2 | 0.00 | 0.00 | 0.00 | 84 | 1010.4 |
| 20260507091514 | 77 | 137 | 7.8 | 14.8 | 0.00 | 0.00 | 0.00 | 84 | 1010.6 |
| 20260507090019 | 78 | 131 | 7.8 | 11.3 | 0.00 | 0.00 | 0.00 | 83 | 1010.5 |
| 20260507084511 | 78 | 123 | 7.8 | 11.3 | 0.00 | 0.00 | 0.00 | 83 | 1010.5 |
| 20260507083015 | 78 | 132 | 7.8 | 13.9 | 0.00 | 0.00 | 0.00 | 83 | 1010.7 |
| 20260507081506 | 78 | 132 | 9.6 | 14.8 | 0.00 | 0.00 | 0.00 | 82 | 1010.8 |
| 20260507080136 | 78 | 137 | 8.7 | 13.0 | 0.00 | 0.00 | 0.00 | 82 | 1010.8 |
| 20260507074505 | 79 | 138 | 7.0 | 13.9 | 0.00 | 0.00 | 0.00 | 81 | 1011.1 |
| 20260507073111 | 79 | 125 | 9.6 | 13.0 | 0.00 | 0.00 | 0.00 | 80 | 1011.4 |
| 20260507071656 | 79 | 135 | 10.4 | 13.9 | 0.00 | 0.00 | 0.00 | 80 | 1011.3 |
| 20260507070054 | 80 | 103 | 7.0 | 12.2 | 0.00 | 0.00 | 0.00 | 79 | 1011.3 |
| 20260507064555 | 80 | 105 | 8.7 | 13.9 | 0.00 | 0.00 | 0.00 | 79 | 1011.7 |
| 20260507063054 | 80 | 125 | 7.8 | 13.9 | 0.00 | 0.00 | 0.00 | 78 | 1011.7 |
| 20260507061548 | 81 | 141 | 7.8 | 16.5 | 0.00 | 0.00 | 0.00 | 78 | 1011.6 |
| 20260507060046 | 81 | 134 | 11.3 | 18.2 | 0.00 | 0.00 | 0.00 | 77 | 1011.6 |
| 20260507054552 | 81 | 119 | 8.7 | 17.4 | 0.00 | 0.00 | 0.00 | 76 | 1011.8 |
| 20260507053047 | 82 | 129 | 13.9 | 20.0 | 0.00 | 0.00 | 0.00 | 75 | 1011.8 |
| 20260507051544 | 82 | 130 | 14.8 | 20.9 | 0.00 | 0.00 | 0.00 | 74 | 1011.8 |
| 20260507050043 | 83 | 117 | 13.9 | 20.9 | 0.00 | 0.00 | 0.00 | 72 | 1011.8 |
| 20260507044543 | 83 | 115 | 11.3 | 16.5 | 0.00 | 0.00 | 0.00 | 71 | 1011.9 |
| 20260507043042 | 84 | 112 | 9.6 | 17.4 | 0.00 | 0.00 | 0.00 | 71 | 1011.9 |
| 20260507041541 | 85 | 113 | 9.6 | 18.2 | 0.00 | 0.00 | 0.00 | 70 | 1011.8 |
| 20260507040048 | 85 | 142 | 11.3 | 21.7 | 0.00 | 0.00 | 0.00 | 69 | 1011.8 |
| 20260507034553 | 86 | 113 | 12.2 | 20.9 | 0.00 | 0.00 | 0.00 | 67 | 1011.5 |
| 20260507033042 | 86 | 112 | 11.3 | 19.1 | 0.00 | 0.00 | 0.00 | 67 | 1011.3 |
| 20260507031538 | 87 | 140 | 13.0 | 18.2 | 0.00 | 0.00 | 0.00 | 66 | 1011.1 |
| 20260507030039 | 87 | 131 | 14.8 | 22.6 | 0.00 | 0.00 | 0.00 | 65 | 1010.8 |
| 20260507024538 | 88 | 121 | 13.9 | 20.9 | 0.00 | 0.00 | 0.00 | 63 | 1010.6 |
| 20260507023037 | 89 | 107 | 12.2 | 23.5 | 0.00 | 0.00 | 0.00 | 61 | 1010.5 |
| 20260507021537 | 89 | 115 | 12.2 | 23.5 | 0.00 | 0.00 | 0.00 | 59 | 1010.3 |
| 20260507020036 | 90 | 132 | 14.8 | 22.6 | 0.00 | 0.00 | 0.00 | 58 | 1010.1 |
| 20260507014536 | 91 | 123 | 11.3 | 23.5 | 0.00 | 0.00 | 0.00 | 56 | 1009.8 |
| 20260507013038 | 92 | 121 | 9.6 | 16.5 | 0.00 | 0.00 | 0.00 | 55 | 1009.4 |
| 20260507011539 | 93 | 126 | 14.8 | 20.0 | 0.00 | 0.00 | 0.00 | 53 | 1009.3 |
| 20260507010034 | 94 | 92 | 12.2 | 19.1 | 0.00 | 0.00 | 0.00 | 52 | 1008.9 |
| 20260507004533 | 95 | 126 | 12.2 | 20.9 | 0.00 | 0.00 | 0.00 | 51 | 1008.7 |
| 20260507003032 | 96 | 99 | 13.0 | 20.0 | 0.00 | 0.00 | 0.00 | 49 | 1008.5 |
| 20260507001543 | 97 | 118 | 11.3 | 18.2 | 0.00 | 0.00 | 0.00 | 46 | 1008.3 |
| 20260507000131 | 98 | 146 | 10.4 | 16.5 | 0.00 | 0.00 | 0.00 | 44 | 1008.3 |
| 20260506234541 | 98 | 132 | 10.4 | 20.9 | 0.00 | 0.00 | 0.00 | 42 | 1008.1 |
| 20260506233030 | 99 | 144 | 12.2 | 18.2 | 0.00 | 0.00 | 0.00 | 42 | 1008.0 |
| 20260506231534 | 99 | 159 | 12.2 | 18.2 | 0.00 | 0.00 | 0.00 | 40 | 1007.9 |
| 20260506230029 | 100 | 89 | 11.3 | 15.6 | 0.00 | 0.00 | 0.00 | 41 | 1007.6 |
| 20260506224531 | 101 | 150 | 12.2 | 19.1 | 0.00 | 0.00 | 0.00 | 40 | 1007.4 |
| 20260506223028 | 101 | 129 | 11.3 | 17.4 | 0.00 | 0.00 | 0.00 | 40 | 1007.3 |
| 20260506221527 | 101 | 163 | 11.3 | 16.5 | 0.00 | 0.00 | 0.00 | 39 | 1007.3 |
| 20260506220026 | 101 | 162 | 11.3 | 18.2 | 0.00 | 0.00 | 0.00 | 37 | 1007.4 |
| 20260506214525 | 102 | 203 | 11.3 | 18.2 | 0.00 | 0.00 | 0.00 | 39 | 1007.4 |